Tracking 29892 objects as of 21-Nov-2024
HD Live streaming from Space Station
objects crossing your sky now

SL-12 R/B(2)

Track SL-12 R/B(2) now!


NORAD ID: 11570
Int'l Code: 1977-071F
Perigee: 36,478.3 km
Apogee: 36,561.4 km
Inclination: 7.1 °
Period: 1,473.4 minutes
Semi major axis: 42890 km
RCS: 2.917 m2 (large)
Launch date: July 23, 1977
Source: Commonwealth of Independent States (former USSR) (CIS)
Launch site: TYURATAM MISSILE AND SPACE COMPLEX (TTMTR)

Note: This is a ROCKET BODY
Your satellite tracking list
Your tracking list is empty




NASA's NSSDC Master Catalog

Two Line Element Set (TLE):
1 11570U 77071F   24325.75388569 -.00000037  00000-0  00000-0 0  9994
2 11570   7.1328 288.8415 0009685 143.6097 349.1026  0.97736275113793
Source of the keplerian elements: AFSPC